weather.gov     
National Weather Service

Terminal Aerodrome Forecast
NWS Homepage
This page is being discontinued on March 12, 2014.
The same data is available at this site. Please update your bookmarks.
Thank you, and we apologize for the inconvenience.
Please send an email to SR-SRH.Webmaster@noaa.gov with any concerns.


Current Version
Previous Version:    01  02  03  04  05  06  07  08  09  10  11  12  13  14  15  16  17  18  19  20  21  22  23  24  25  26  27  
[Printable]
408
FTUS44 KLCH 290600 AAA
TAFLCH
TAF AMD
KLCH 290640Z 2907/3006 16006KT 2SM BR SCT002
      TEMPO 2907/2909 1/4SM FG VV002
     FM290900 18005KT 2SM BR BKN003
      TEMPO 2909/2911 1SM BR BKN002
     FM291100 18007KT 2SM BR OVC005
     FM291500 18012G20KT P6SM BKN015
     FM291700 20015G20KT P6SM SCT017 BKN040
     FM300400 16010KT P6SM SCT008 SCT035=


U.S. Dept. of Commerce
NOAA National Weather Service
1325 East West Highway
Silver Spring, MD 20910
E-mail: w-nws.webmaster@noaa.gov
Page last modified: May 16, 2007
NATIONAL WEATHER SERVICE: for Safety, for Work, for Fun - FOR LIFE